| time (UTC) | temp F | wind direction | speed MPH | gust MPH | rain 1hr in | rain 24hr in | rain mn in | humidity % | barometer mb |
| 20260904143034 | 48 | 315 | 0.0 | 2.0 | 0.00 | 0.01 | 0.00 | 100 | 1013.3 |
| 20260904141528 | 48 | 315 | 0.0 | 0.0 | 0.00 | 0.01 | 0.00 | 100 | 1013.1 |
| 20260904140033 | 48 | 315 | 0.0 | 0.0 | 0.00 | 0.01 | 0.00 | 100 | 1012.9 |
| 20260904134526 | 48 | 359 | 0.0 | 0.0 | 0.00 | 0.01 | 0.00 | 100 | 1012.8 |
| 20260904131531 | 48 | 22 | 0.0 | 0.0 | 0.00 | 0.02 | 0.00 | 100 | 1012.6 |
| 20260904130106 | 48 | 22 | 0.0 | 0.0 | 0.00 | 0.02 | 0.00 | 100 | 1012.5 |
| 20260904124606 | 48 | 37 | 0.0 | 2.0 | 0.00 | 0.03 | 0.00 | 100 | 1012.5 |
| 20260904123028 | 48 | 90 | 0.0 | 0.0 | 0.00 | 0.04 | 0.00 | 100 | 1012.5 |
| 20260904121541 | 48 | 111 | 0.0 | 2.0 | 0.00 | 0.05 | 0.00 | 100 | 1012.4 |
| 20260904120029 | 48 | 202 | 0.0 | 0.0 | 0.00 | 0.06 | 0.00 | 100 | 1012.3 |
| 20260904114530 | 48 | 202 | 0.0 | 0.0 | 0.00 | 0.06 | 0.00 | 100 | 1012.2 |
| 20260904113110 | 48 | 206 | 0.0 | 0.0 | 0.00 | 0.07 | 0.00 | 100 | 1012.0 |
| 20260904111530 | 48 | 270 | 0.0 | 0.0 | 0.00 | 0.08 | 0.00 | 100 | 1011.9 |
| 20260904110029 | 48 | 24 | 0.0 | 3.0 | 0.00 | 0.09 | 0.00 | 100 | 1011.8 |
| 20260904104531 | 48 | 67 | 1.0 | 3.0 | 0.00 | 0.10 | 0.00 | 100 | 1011.6 |
| 20260904103030 | 48 | 156 | 0.0 | 3.0 | 0.00 | 0.11 | 0.00 | 100 | 1011.5 |
| 20260904101530 | 48 | 83 | 0.0 | 2.0 | 0.00 | 0.12 | 0.00 | 100 | 1011.4 |
| 20260904100143 | 48 | 69 | 0.0 | 3.0 | 0.00 | 0.13 | 0.00 | 100 | 1011.3 |
| 20260904094532 | 48 | 178 | 0.0 | 2.0 | 0.00 | 0.14 | 0.00 | 100 | 1011.2 |
| 20260904093029 | 48 | 194 | 1.0 | 3.0 | 0.00 | 0.15 | 0.00 | 100 | 1011.1 |
| 20260904091526 | 48 | 134 | 0.0 | 2.0 | 0.00 | 0.16 | 0.00 | 100 | 1011.2 |
| 20260904090107 | 47 | 121 | 1.0 | 2.0 | 0.00 | 0.17 | 0.00 | 100 | 1011.1 |
| 20260904084531 | 47 | 348 | 0.0 | 3.0 | 0.00 | 0.18 | 0.00 | 100 | 1011.1 |
| 20260904081531 | 48 | 189 | 0.0 | 2.0 | 0.00 | 0.18 | 0.00 | 100 | 1011.0 |
| 20260904080032 | 49 | 139 | 2.0 | 3.0 | 0.00 | 0.18 | 0.00 | 100 | 1011.1 |
| 20260904074530 | 48 | 136 | 2.0 | 4.0 | 0.00 | 0.18 | 0.00 | 100 | 1011.1 |
| 20260904073028 | 48 | 135 | 0.0 | 3.0 | 0.00 | 0.18 | 0.00 | 100 | 1011.1 |
| 20260904070029 | 48 | 157 | 0.0 | 0.0 | 0.00 | 0.18 | 0.00 | 100 | 1011.0 |
| 20260904064529 | 48 | 171 | 0.0 | 2.0 | 0.00 | 0.18 | 0.18 | 100 | 1011.0 |
| 20260904063032 | 48 | 180 | 0.0 | 1.0 | 0.00 | 0.18 | 0.18 | 100 | 1011.0 |
| 20260904061530 | 49 | 184 | 2.0 | 4.0 | 0.00 | 0.18 | 0.18 | 100 | 1010.9 |
| 20260904060030 | 49 | 360 | 0.0 | 2.0 | 0.00 | 0.18 | 0.18 | 100 | 1010.9 |
| 20260904054533 | 49 | 135 | 1.0 | 2.0 | 0.00 | 0.18 | 0.18 | 100 | 1010.9 |
| 20260904053032 | 50 | 135 | 0.0 | 0.0 | 0.00 | 0.18 | 0.18 | 100 | 1010.9 |
| 20260904051531 | 50 | 135 | 0.0 | 2.0 | 0.00 | 0.18 | 0.18 | 100 | 1011.0 |
| 20260904050029 | 50 | 135 | 0.0 | 1.0 | 0.00 | 0.18 | 0.18 | 100 | 1010.9 |
| 20260904044528 | 51 | 135 | 1.0 | 3.0 | 0.00 | 0.18 | 0.18 | 100 | 1011.0 |
| 20260904043027 | 51 | 152 | 2.0 | 4.0 | 0.00 | 0.18 | 0.18 | 100 | 1011.1 |
| 20260904041531 | 51 | 182 | 2.0 | 4.0 | 0.00 | 0.18 | 0.18 | 100 | 1011.2 |
| 20260904034532 | 51 | 42 | 1.0 | 3.0 | 0.00 | 0.18 | 0.18 | 89 | 1010.9 |
| 20260904033029 | 52 | 118 | 2.0 | 3.0 | 0.00 | 0.18 | 0.18 | 87 | 1010.8 |
| 20260904031530 | 52 | 95 | 1.0 | 4.0 | 0.00 | 0.18 | 0.18 | 86 | 1010.7 |
| 20260904030030 | 52 | 70 | 2.0 | 5.0 | 0.00 | 0.18 | 0.18 | 85 | 1010.6 |
| 20260904023030 | 53 | 17 | 5.0 | 8.0 | 0.00 | 0.18 | 0.18 | 84 | 1010.5 |
| 20260904020030 | 55 | 29 | 3.0 | 8.0 | 0.00 | 0.18 | 0.18 | 85 | 1010.3 |
| 20260904014605 | 55 | 32 | 3.0 | 6.0 | 0.00 | 0.18 | 0.18 | 84 | 1010.3 |
| 20260904013031 | 55 | 21 | 4.0 | 7.0 | 0.00 | 0.18 | 0.18 | 84 | 1010.4 |
| 20260904011531 | 55 | 17 | 6.0 | 10.0 | 0.00 | 0.18 | 0.18 | 84 | 1010.3 |
| 20260904010033 | 55 | 25 | 6.0 | 10.0 | 0.01 | 0.18 | 0.18 | 85 | 1010.2 |
| 20260904004527 | 55 | 29 | 8.0 | 13.0 | 0.01 | 0.18 | 0.18 | 84 | 1010.1 |
| 20260904003031 | 55 | 21 | 6.0 | 11.0 | 0.01 | 0.18 | 0.18 | 84 | 1010.1 |
| 20260904001528 | 56 | 34 | 7.0 | 12.0 | 0.01 | 0.18 | 0.17 | 85 | 1009.9 |
| 20260904000032 | 56 | 49 | 5.0 | 7.0 | 0.00 | 0.17 | 0.17 | 84 | 1010.0 |
| 20260903234647 | 56 | 56 | 5.0 | 10.0 | 0.00 | 0.17 | 0.17 | 81 | 1010.1 |
| 20260903233030 | 56 | 25 | 5.0 | 10.0 | 0.00 | 0.17 | 0.17 | 76 | 1010.3 |
| 20260903231531 | 58 | 330 | 5.0 | 12.0 | 0.00 | 0.17 | 0.17 | 68 | 1010.3 |
| 20260903224530 | 61 | 312 | 6.0 | 15.0 | 0.00 | 0.17 | 0.17 | 62 | 1010.3 |
| 20260903223146 | 62 | 295 | 6.0 | 14.0 | 0.00 | 0.17 | 0.17 | 60 | 1010.2 |
| 20260903221602 | 64 | 305 | 5.0 | 13.0 | 0.00 | 0.17 | 0.17 | 59 | 1010.1 |
| 20260903220107 | 64 | 38 | 3.0 | 7.0 | 0.00 | 0.17 | 0.17 | 61 | 1010.1 |
| 20260903214530 | 63 | 275 | 2.0 | 9.0 | 0.00 | 0.17 | 0.17 | 62 | 1010.2 |
| 20260903213145 | 62 | 316 | 2.0 | 5.0 | 0.00 | 0.17 | 0.17 | 64 | 1010.2 |
| 20260903211646 | 62 | 309 | 4.0 | 6.0 | 0.00 | 0.17 | 0.17 | 65 | 1010.2 |
| 20260903210105 | 61 | 282 | 5.0 | 8.0 | 0.00 | 0.17 | 0.17 | 64 | 1010.4 |
| 20260903204529 | 63 | 289 | 7.0 | 12.0 | 0.00 | 0.17 | 0.17 | 64 | 1010.4 |
| 20260903203107 | 62 | 319 | 4.0 | 12.0 | 0.00 | 0.17 | 0.17 | 65 | 1010.5 |
| 20260903200031 | 60 | 288 | 6.0 | 10.0 | 0.00 | 0.17 | 0.17 | 70 | 1010.7 |
| 20260903194532 | 60 | 321 | 5.0 | 8.0 | 0.00 | 0.17 | 0.17 | 68 | 1010.9 |
| 20260903193105 | 61 | 360 | 5.0 | 10.0 | 0.00 | 0.17 | 0.17 | 68 | 1011.0 |
| 20260903191604 | 61 | 30 | 6.0 | 11.0 | 0.00 | 0.17 | 0.17 | 75 | 1011.1 |
| 20260903190032 | 58 | 331 | 4.0 | 9.0 | 0.00 | 0.17 | 0.17 | 78 | 1011.3 |
| 20260903184531 | 57 | 332 | 4.0 | 9.0 | 0.00 | 0.17 | 0.17 | 80 | 1011.4 |
| 20260903183029 | 58 | 309 | 6.0 | 9.0 | 0.00 | 0.17 | 0.17 | 74 | 1011.4 |
| 20260903181532 | 60 | 351 | 4.0 | 7.0 | 0.00 | 0.17 | 0.17 | 73 | 1011.3 |
| 20260903180107 | 60 | 30 | 5.0 | 10.0 | 0.00 | 0.17 | 0.17 | 77 | 1011.4 |
| 20260903174528 | 58 | 56 | 4.0 | 8.0 | 0.00 | 0.17 | 0.17 | 83 | 1011.4 |
| 20260903173031 | 55 | 4 | 1.0 | 7.0 | 0.00 | 0.17 | 0.17 | 84 | 1011.4 |
| 20260903171531 | 53 | 4 | 0.0 | 4.0 | 0.00 | 0.17 | 0.17 | 89 | 1011.5 |
| 20260903164529 | 50 | 323 | 2.0 | 4.0 | 0.00 | 0.17 | 0.17 | 91 | 1011.7 |
| 20260903163030 | 50 | 318 | 2.0 | 5.0 | 0.00 | 0.17 | 0.17 | 94 | 1011.5 |
| 20260903161606 | 50 | 67 | 0.0 | 2.0 | 0.00 | 0.17 | 0.17 | 95 | 1011.6 |
| 20260903160039 | 49 | 81 | 2.0 | 4.0 | 0.00 | 0.17 | 0.17 | 95 | 1011.6 |
| 20260903153031 | 47 | 261 | 2.0 | 4.0 | 0.00 | 0.17 | 0.17 | 95 | 1011.5 |
| 20260903151605 | 47 | 139 | 1.0 | 5.0 | 0.00 | 0.17 | 0.17 | 95 | 1011.6 |
| 20260903150031 | 46 | 122 | 4.0 | 9.0 | 0.00 | 0.17 | 0.17 | 95 | 1011.5 |
| 20260903144527 | 45 | 331 | 2.0 | 5.0 | 0.00 | 0.17 | 0.17 | 100 | 1011.3 |